ASL100 LYBE-LIRN

Flight info

Callsign ASL100
Flight time N/A
Altitude 330
Route VAL3J VAL TORTO MOKUN AIOSA TOPNO DOGUS L995 EKTOL EKTO1C
Aircraft B738/M-SDE3FGHIRWY/LB1

Departure

Time 2026-04-30 15:08
Airport Belgrade Nikola Tesla Airport (LYBE)

Arrival

Time N/A
Airport Naples International Airport (LIRN)
Time Latitude Longitude Altitude Speed Heading
2026-04-30 14:54 44.81932 20.29283 306 ft 0 kts 302°
2026-04-30 14:59 44.81927 20.29293 307 ft 2 kts 302°
2026-04-30 15:00 44.81898 20.29348 305 ft 2 kts 340°
2026-04-30 15:00 44.81880 20.29348 305 ft 0 kts 27°
2026-04-30 15:03 44.81923 20.29374 305 ft 7 kts 21°
2026-04-30 15:04 44.82045 20.29479 307 ft 13 kts 30°
2026-04-30 15:04 44.82031 20.29781 309 ft 16 kts 121°
2026-04-30 15:05 44.81799 20.30301 306 ft 25 kts 122°
2026-04-30 15:06 44.81600 20.30751 306 ft 29 kts 121°
2026-04-30 15:06 44.81365 20.31277 305 ft 33 kts 122°
2026-04-30 15:07 44.81419 20.31414 306 ft 18 kts 304°
2026-04-30 15:07 44.82029 20.30048 305 ft 160 kts 301°
2026-04-30 15:08 44.83262 20.26847 1995 ft 192 kts 297°
2026-04-30 15:08 44.84160 20.20795 3747 ft 243 kts 248°
2026-04-30 15:09 44.81355 20.18141 5232 ft 257 kts 199°
2026-04-30 15:09 44.78041 20.16076 6813 ft 261 kts 212°
2026-04-30 15:10 44.74955 20.13264 8365 ft 268 kts 216°
2026-04-30 15:11 44.68717 20.06982 11316 ft 283 kts 217°
2026-04-30 15:11 44.65263 20.04183 12690 ft 292 kts 201°
2026-04-30 15:12 44.59370 20.01395 14706 ft 303 kts 200°
2026-04-30 15:13 44.55395 19.99461 16055 ft 306 kts 201°
2026-04-30 15:14 44.47268 19.95389 18679 ft 314 kts 202°
2026-04-30 15:14 44.41032 19.92148 20303 ft 324 kts 204°
2026-04-30 15:16 44.30180 19.86703 22940 ft 341 kts 196°
2026-04-30 15:17 44.20611 19.84788 24822 ft 353 kts 188°
2026-04-30 15:18 44.08346 19.82499 27109 ft 356 kts 191°
2026-04-30 15:19 44.01065 19.80987 28638 ft 352 kts 192°